www.pogodaiklimat.ru

Погода и климат >> Архив погоды >> Индонезия >> Рутенг


ПОГОДА в Рутенге

  • Прогноз погоды в Рутенге
  • Монитор погоды в Рутенге

АРХИВ ПОГОДЫ в Рутенге

Время (UTC), дата Ветер
(напр.,м/с)
 
Видим.   Явления Облачность Т
(С)
Тd
(С)
f
(%)
Тe
(С)
Тes
(С)
Комфортность P
(гПа)
Po
(гПа)
Тmin
(С)
Tmax
(С)
R
(мм)
R24
(мм)
S
(см)
00 17.01 С 3 10 км 10/8 400 м
[Cu med, cong As op Ci fib]
+20.4 +18.9 91 +25 +25 комфорт 1009.0 886.1 +17.8 3
03 17.01 С 2 5000 м слаб. дождь 10/8 300 м
[Cu med, cong As op Ci fib]
+21.6 +19.1 86 +27 +29 душно 1009.5 886.7
06 17.01 ЮЗ 5 5000 м слаб. дождь 10/8 300 м
[Cu med, cong As op Ci fib]
+22.6 +18.9 80 +28 +29 душно 1007.7 884.8 0.0
09 17.01 З 3 6000 м слаб. дождь 10/8 400 м
[Cu med, cong As op Ci fib]
+20.0 +18.7 92 +24 +24 комфорт 1008.2 885.4 2
12 17.01 ЮЗ 3 6000 м в посл. час дождь 5/5 450 м
[Cu hum Ci fib]
+18.8 +17.8 94 +20 +20 1009.2 886.3 +26.2 4
00 18.01 ЮЗ 2 15 км 10/8 300 м
[Cu med, cong As op Ci fib]
+19.8 +18.4 92 +23 +24 комфорт 1009.5 886.6 +17.2 4
03 18.01 штиль 0 10 км 9/6 420 м
[Cu med, cong As op Ci fib]
+22.6 +19.1 81 +29 +35 очень
душно
1009.5 886.7
06 18.01 СЗ 3 8000 м 10/8 400 м
[Cu med, cong As op Ci fib]
+22.6 +21.1 91 +30 +31 очень
душно
1007.9 885.1
09 18.01 З 2 5000 м слаб. дождь 10/8 300 м
[Cu med, cong As op Ci fib]
+20.6 +20.1 97 +26 +26 душно 1007.8 885.0 2
12 18.01 СЗ 2 100 м в посл. час дождь ?/? +19.8 +19.4 98 +24 +24 комфорт 1009.2 886.3 +23.0 1
00 19.01 штиль 0 14 км 9/6 420 м
[Cu med, cong As op Ci fib]
+20.2 +19.0 93 +24 +26 комфорт 1009.6 886.8 +18.2 3
03 19.01 СЗ 2 10 км 9/6 400 м
[Cu med, cong Ac As Ci fib]
+23.2 +20.8 86 +31 +36 очень
душно
1009.8 886.9
06 19.01 В 3 10 км в посл. час дождь 10/8 400 м
[Cu med, cong As op Ci fib]
+21.8 +20.6 93 +28 +29 душно 1007.7 884.8 2
09 19.01 СЗ 2 2000 м слаб. ливневой дождь, в посл. час гроза {морось} 10/8 360 м
[Cu med, cong As op Ci fib]
+20.0 +19.7 98 +24 +24 комфорт 1008.1 885.3 3
12 19.01 СВ 2 6000 м {дождь} 5/4 400 м
[Cu hum Ci fib]
+18.8 +18.4 98 +21 +21 комфорт 1008.7 885.9 +23.8 3
00 20.01 СВ 1 14 км 4/1 480 м
[Cu hum Ci fib]
+20.2 +16.5 79 +24 +30 комфорт 1009.3 886.4 +15.2 5
03 20.01 З 2 16 км 4/1 480 м
[Cu hum Ci fib]
+24.4 +18.7 71 +29 +47 душно 1009.4 886.5
06 20.01 ЮВ 3 5000 м осадки на расстоянии 9/5 400 м
[Cu med, cong As op Ci fib]
+23.4 +20.3 83 +31 +35 очень
душно
1007.7 884.8
09 20.01 ЮВ 1 6000 м {дождь} 9/8 400 м
[Cu med, cong As op Ci fib]
+21.2 +19.8 92 +26 +26 душно 1007.6 884.7 1
12 20.01 штиль 0 5000 м в посл. час дождь 6/4 400 м
[Cu hum Ac trans Ci fib]
+20.0 +19.7 98 +23 +23 комфорт 1009.1 886.3 +25.4 1
00 21.01 С 2 16 км 4/1 450 м
[Cu hum Ac trans Ci fib]
+21.6 +18.3 82 +26 +31 душно 1008.4 885.5 +16.8 2
03 21.01 СВ 3 12 км 9/6 400 м
[Cu med, cong As op Ci fib]
+24.0 +20.9 83 +30 +35 очень
душно
1009.0 886.1
06 21.01 С 3 10 км 10/8 400 м
[Cu med, cong As op Ci fib]
+23.4 +21.3 88 +31 +33 очень
душно
1007.3 884.5
09 21.01 СВ 2 10 км {дождь} 9/6 400 м
[Cu med, cong As op Ci fib]
+23.0 +21.2 90 +31 +31 очень
душно
1007.1 884.3 1
12 21.01 С 1 8000 м 6/5 400 м
[Cu med, cong As op Ci fib]
+21.0 +20.0 94 +27 +27 душно 1009.0 886.1 +24.4 1
00 22.01 штиль 0 10 км {дождь} 10/8 300 м
[Cu med, cong As op Ci fib]
+21.0 +19.4 91 +25 +26 комфорт 1007.5 884.7 +18.6 1
03 22.01 С 2 10 км 9/6 400 м
[Cu med, cong Ci fib]
+22.6 +20.5 88 +29 +37 очень
душно
1008.2 885.3
06 22.01 ЮЗ 4 8000 м слаб. дождь 10/8 360 м
[Cu med, cong As op Ci fib]
+23.0 +21.1 89 +31 +32 очень
душно
1005.8 883.0 6
09 22.01 ЮЗ 5 8000 м {дождь} 9/6 400 м
[Cu med, cong As op Ci fib]
+22.6 +19.8 84 +29 +29 очень
душно
1006.7 883.7 0.0
12 22.01 З 2 8000 м 6/5 400 м
[Cu med, cong As op Ci fib]
+19.8 +18.8 94 +24 +24 комфорт 1007.8 885.0 +25.0
00 23.01 ЮЗ 4 3000 м слаб. дождь 10/8 300 м
[Cu med, cong As op Ci fib]
+19.2 +18.9 98 +21 +22 комфорт 1008.0 885.2 +18.2 64
06 23.01 ЮЗ 4 8000 м в посл. час дождь 9/8 360 м
[Cu med, cong As op Ci fib]
+21.0 +18.0 83 +25 +27 комфорт 1007.7 884.9 0.2
09 23.01 ЮЗ 4 7000 м 10/8 400 м
[Cu med, cong As op Ci fib]
+20.0 +17.3 84 +23 +23 комфорт 1007.5 884.6
12 23.01 ЮЗ 5 6000 м 10/5 400 м
[Cu med, cong As op Ci fib]
+19.0 +17.4 90 +20 +20 1008.2 885.3 +22.0

 

Местоположение метеостанции Рутенг (Индонезия): широта -8.63 долгота 120.45 высота над уровнем моря 1170 м.

В архиве по умолчанию представлена погода в Рутенге за последнюю неделю. Архивные данные за месяц целиком и за предыдущие месяцы, начиная с января 2011 года, Вы можете получить, выбрав интересующий диапазон дат из раскрывающегося списка и нажав кнопку "Ввод!".


*Определитесь, кто Вы:
робот инопланетянин человек

Внимание! Время в таблицах - всемирное. Для получения местного времени необходимо прибавить поправку, которая равна 8 ч.

Смотрите также архив погоды в соседних городах и на ближайших метеорологических станциях:

Погода в Аэропорту Умбу Механг Кунда (Индонезия) (116 км)
Погода в Биме (Индонезия) (193 км)
Погода в Маумере (Индонезия) (198 км)
Погода в Сабу (Индонезия) (257 км)
Погода в Ларантуке (Индонезия) (280 км)
Погода в Сумбава-Бесаре (Индонезия) (335 км)
Погода на Роти (Индонезия) (370 км)
Погода в Купанге (Индонезия) (391 км)
Погода в Аэропорту Султана Хасануддин (Индонезия) (408 км)
Погода в Уджангпанданге (Индонезия) (408 км)

Пояснения к столбцам:

Ветер - указаны скорость ветра в м/с - средняя за 10 мин, порывы в срок и между сроками (в фигурных скобках) и направление, откуда дует ветер: С - северный, СВ - северо-восточный, В - восточный, ЮВ - юго-восточный, Ю - южный, ЮЗ - юго-западный, З - западный, СЗ - северо-западный.
Видимость - горизонтальная дальность видимости в метрах или километрах. При видимости от 1 до 10 км при отсутствии осадков обычно наблюдается дымка, при ухудшении видимости до 1 км и менее - туман. В сухую погоду видимость может ухудшаться дымом, пылью или мглою.
Явления - указаны атмосферные явления, наблюдавшиеся в срок или в последний час перед сроком; фигурными скобками обозначены явления, наблюдавшиеся между сроками (за 1-3 часа до срока); квадратными скобками обозначены град или гололедные отложения с указанием их диаметра в мм.
Облачность - указаны через наклонную черту общая и нижняя облачность в баллах и высота нижней границы облаков в метрах; квадратными скобками обозначены формы облаков: Ci - перистые, Cs - перисто-слоистые, Cc - перисто-кучевые, Ac - высококучевые, As - высокослоистые, Sc - слоисто-кучевые, Ns - слоисто-дождевые, Cu - кучевые, Cb - кучево-дождевые. Подробнее классификацию облаков см. в Атласе облаков (PDF).
T - Температура воздуха - температура, измеренная на высоте 2 м над землей.
Td - Температура точки росы - температура, при понижении до которой содержащийся в воздухе водяной пар достигнет насыщения.
f - Относительная влажность воздуха - влажноcть воздуха, измеренная на высоте 2 м над землей.
Te - Эффективная температура - температура, которую ощущает одетый по сезону человек в тени. Характеристика душности погоды. При расчете учитывается влияние влажности воздуха и скорости ветра на теплоощущения человека.
Tes - Эффективная температура на солнце - температура, которую ощущает человек, с поправкой на солнечный нагрев. Характеристика знойности погоды. Зависит от высоты солнца над горизонтом, облачности и скорости ветра. Ночью, в пасмурную погоду, а также при ветре 12 м/с и более поправка равна нулю.
P - Атмосферное давление - приведенное к уровню моря атмосферное давление.
Po - Атмосферное давление - измеренное на уровне метеостанции атмосферное давление.
Tmin - Минимальная температура - минимум температуры воздуха на высоте 2 м над землей.
Tmax - Максимальная температура - максимум температуры воздуха на высоте 2 м над землей.
R - Количество осадков - Количество выпавших осадков за период времени, мм. При наведении курсора мыши на число - период времени, за который выпало указанное количество осадков.
R24 - Количество осадков - Количество выпавших осадков за 24 часа, мм.
S - Снежный покров - Высота снежного покрова, см. При наведении курсора мыши на число - состояние снежного покрова и степень покрытия местности в баллах.